Overview Statistics Trail Chart Weather Telemetry Raw packets
 

This is the latest recevied weather packets stored in our database for station/object LU3HGB-WX. If no packets are shown the sender has not sent any weather packets the latest 10 day(s).

<< 99 100 101 102 103 104 105 >>
Time Temp. Humidity Pressure Rain* Wind** Luminosity Snow
1787945260 23.33° C 25% 1007 hPa 0 mm - 516 W/m² -
1787944959 22.78° C 27% 1007 hPa 0 mm - 535 W/m² -
1787944660 22.78° C 26% 1007 hPa 0 mm - 550 W/m² -
1787944361 22.78° C 27% 1007 hPa 0 mm - 575 W/m² -
1787944059 23.33° C 27% 1007 hPa 0 mm - 589 W/m² -
1787943759 23.33° C 28% 1007 hPa 0 mm - 606 W/m² -
1787943459 23.33° C 27% 1007 hPa 0 mm - 620 W/m² -
1787943160 23.33° C 30% 1007 hPa 0 mm - 637 W/m² -
1787942860 23.33° C 29% 1007 hPa 0 mm - 649 W/m² -
1787942560 23.33° C 30% 1007 hPa 0 mm - 667 W/m² -
1787942260 23.33° C 31% 1007 hPa 0 mm - 679 W/m² -
1787941960 23.33° C 31% 1007 hPa 0 mm - 693 W/m² -
1787941660 22.78° C 32% 1007 hPa 0 mm - 705 W/m² -
1787941360 22.78° C 31% 1008 hPa 0 mm - 717 W/m² -
1787941062 22.78° C 31% 1008 hPa 0 mm - 731 W/m² -
1787940760 22.78° C 31% 1008 hPa 0 mm - 747 W/m² -
1787940460 22.78° C 33% 1008 hPa 0 mm - 756 W/m² -
1787940160 22.78° C 30% 1008 hPa 0 mm - 770 W/m² -
1787939863 22.22° C 30% 1008 hPa 0 mm - 780 W/m² -
1787939560 22.22° C 31% 1008 hPa 0 mm - 792 W/m² -
1787939260 22.22° C 31% 1008 hPa 0 mm - 803 W/m² -
1787938960 22.78° C 32% 1008 hPa 0 mm - 812 W/m² -
1787938660 22.78° C 30% 1008 hPa 0 mm - 823 W/m² -
1787938360 22.78° C 32% 1008 hPa 0 mm - 827 W/m² -
1787938059 22.78° C 30% 1008 hPa 0 mm - 838 W/m² -

* Rain latest hour (hover to see other rain measurements)
** Current wind speed in m/s (hover to see current wind gust speed)